Weather History for KVUO - June, 2013

Change the Weather History Date:

Thursday, June 13, 2013

  Actual Average Record
Temperature  
Mean Temperature 58 °F 63 °F  
Max Temperature 63 °F 73 °F 97 °F (2002)
Min Temperature 52 °F 53 °F 39 °F (1896)
Degree Days  
Heating Degree Days 7    
Month to date heating degree days 37  
Since 1 June heating degree days 37  
Since 1 July heating degree days 4181  
Cooling Degree Days 0    
Month to date cooling degree days 13  
Year to date cooling degree days 25  
Since 1 June cooling degree days 13  
Growing Degree Days 6 (Base 50)    
Moisture  
Dew Point 51 °F    
Average Humidity 87    
Maximum Humidity 96    
Minimum Humidity 78    
Precipitation  
Precipitation 0.37 in 0.07 in 0.45 in (1906)
Month to date precipitation 0.94 0.91  
Year to date precipitation 14.17 19.49  
Snow  
Snow 0.00 in - - ()
Month to date snowfall 0.0  
Since 1 June snowfall 0.0  
Snow Depth 0.00 in    
Sea Level Pressure  
Sea Level Pressure 30.21 in    
Wind  
Wind Speed 2 mph (SSW)    
Max Wind Speed 10 mph    
Max Gust Speed 14 mph    
Visibility 9 miles    
Events Rain    
T = Trace of Precipitation, MM = Missing Value Source: NWS Daily Summary

Daily Weather History Graph

Daily Weather History Graph

Search for Another Location

Airport or City:

Trip Planner

Search our weather history database for the weather conditions in past years. The results will help you decide how hot, cold, wet, or windy it might be!

Date:

Astronomy

Jun. 13, 2013 Rise Set
Actual Time 5:20 AM PDT 9:00 PM PDT
Civil Twilight 4:42 AM PDT 9:38 PM PDT
Nautical Twilight 3:52 AM PDT 10:29 PM PDT
Astronomical Twilight 2:43 AM PDT 11:38 PM PDT
Moon 10:14 AM PDT (6/13) 11:56 PM PDT (6/13)
Length of Visible Light 16h 56m
Length of Day
15h 40m
Waxing Crescent, 22% of the Moon is Illuminated
Jun 13
Waxing Crescent
Jun 16
First Quarter
Jun 23
Full
Jun 29
Last Quarter
Jul 8
New

Hourly Weather History & Observations

Time (PDT) Temp. Dew Point Humidity Pressure Visibility Wind Dir Wind Speed Gust Speed Precip Events Conditions
12:14 AM 53.6 °F 53.6 °F 100% 30.17 in 10.0 mi Calm Calm - N/A   Overcast
12:32 AM 53.6 °F 53.6 °F 100% 30.17 in 10.0 mi Calm Calm - N/A   Overcast
12:36 AM 53.6 °F 53.6 °F 100% 30.17 in 10.0 mi Calm Calm - N/A   Overcast
12:53 AM 54.0 °F 52.0 °F 93% 30.18 in 10.0 mi WNW 5.8 mph - N/A   Overcast
1:53 AM 54.0 °F 51.1 °F 90% 30.18 in 10.0 mi Calm Calm - 0.00 in Rain Light Rain
2:53 AM 53.1 °F 48.9 °F 86% 30.18 in 10.0 mi Calm Calm - 0.02 in Rain Light Rain
3:53 AM 52.0 °F 48.9 °F 89% 30.18 in 4.0 mi Calm Calm - 0.08 in Rain Rain
4:21 AM 51.8 °F 50.0 °F 94% 30.17 in 10.0 mi SE 3.5 mph - 0.04 in Rain Light Rain
4:53 AM 52.0 °F 50.0 °F 93% 30.18 in 10.0 mi Calm Calm - 0.04 in   Overcast
5:40 AM 51.8 °F 50.0 °F 94% 30.18 in 6.0 mi SSE 3.5 mph - 0.00 in   Overcast
5:53 AM 52.0 °F 50.0 °F 93% 30.18 in 10.0 mi Calm Calm - 0.00 in   Overcast
6:04 AM 51.8 °F 50.0 °F 94% 30.18 in 10.0 mi SSE 3.5 mph - N/A   Overcast
6:11 AM 51.8 °F 50.0 °F 94% 30.18 in 8.0 mi Variable 3.5 mph - N/A   Overcast
6:24 AM 51.8 °F 48.2 °F 88% 30.18 in 6.0 mi South 3.5 mph - N/A   Overcast
6:41 AM 51.8 °F 48.2 °F 88% 30.18 in 4.0 mi SSE 3.5 mph - 0.02 in Rain Light Rain
6:47 AM 51.8 °F 48.2 °F 88% 30.18 in 7.0 mi SSE 3.5 mph - 0.02 in Rain Light Rain
6:53 AM 52.0 °F 50.0 °F 93% 30.19 in 9.0 mi SSE 3.5 mph - 0.02 in   Overcast
7:15 AM 51.8 °F 50.0 °F 94% 30.18 in 10.0 mi Calm Calm - 0.02 in Rain Light Rain
7:53 AM 53.1 °F 50.0 °F 89% 30.19 in 10.0 mi SSW 3.5 mph - 0.02 in   Overcast
8:45 AM 55.4 °F 51.8 °F 88% 30.19 in 10.0 mi Calm Calm - N/A   Overcast
8:53 AM 54.0 °F 50.0 °F 86% 30.20 in 10.0 mi South 3.5 mph - N/A   Overcast
9:18 AM 53.6 °F 50.0 °F 88% 30.20 in 10.0 mi Calm Calm - N/A   Overcast
9:53 AM 57.0 °F 51.1 °F 81% 30.20 in 10.0 mi Variable 3.5 mph - N/A   Overcast
10:13 AM 55.4 °F 51.8 °F 88% 30.20 in 10.0 mi SSE 5.8 mph - N/A   Overcast
10:27 AM 57.2 °F 51.8 °F 82% 30.20 in 10.0 mi SSE 8.1 mph - N/A   Overcast
10:53 AM 57.0 °F 51.1 °F 81% 30.21 in 10.0 mi SSE 6.9 mph - N/A   Overcast
11:53 AM 57.0 °F 52.0 °F 83% 30.22 in 10.0 mi Calm Calm - 0.04 in   Overcast
12:53 PM 57.0 °F 52.0 °F 83% 30.23 in 10.0 mi Calm Calm - 0.03 in Rain Light Rain
1:53 PM 60.1 °F 53.1 °F 78% 30.23 in 10.0 mi WSW 4.6 mph - 0.00 in Rain Light Rain
2:53 PM 60.1 °F 50.0 °F 69% 30.24 in 10.0 mi WSW 5.8 mph - 0.01 in Rain Light Rain
3:53 PM 62.1 °F 48.9 °F 62% 30.23 in 10.0 mi West 5.8 mph - 0.00 in   Overcast
4:53 PM 59.0 °F 52.0 °F 78% 30.25 in 4.0 mi WNW 6.9 mph - 0.03 in Rain Rain
5:00 PM 57.2 °F 53.6 °F 88% 30.25 in 4.0 mi WNW 8.1 mph - 0.01 in Rain Light Rain
5:11 PM 57.2 °F 51.8 °F 82% 30.25 in 2.5 mi WSW 5.8 mph - 0.05 in Rain Rain
5:29 PM 57.2 °F 51.8 °F 82% 30.24 in 10.0 mi SSW 3.5 mph - 0.08 in Rain Light Rain
5:53 PM 57.9 °F 54.0 °F 87% 30.25 in 10.0 mi SW 3.5 mph - 0.08 in   Overcast
6:53 PM 60.1 °F 54.0 °F 80% 30.24 in 10.0 mi Calm Calm - N/A   Overcast
7:53 PM 60.1 °F 53.1 °F 78% 30.25 in 10.0 mi West 5.8 mph - N/A   Overcast
8:53 PM 59.0 °F 52.0 °F 78% 30.25 in 10.0 mi West 4.6 mph - N/A   Mostly Cloudy
9:53 PM 55.9 °F 50.0 °F 80% 30.27 in 10.0 mi Calm Calm - N/A   Partly Cloudy
10:53 PM 55.9 °F 48.9 °F 77% 30.29 in 10.0 mi NNW 3.5 mph - N/A   Mostly Cloudy
11:53 PM 54.0 °F 48.0 °F 80% 30.30 in 10.0 mi Calm Calm - N/A   Scattered Clouds